Location: Recife
(8.0585°S, 34.8848°W)
Time: 12:21:05
(UTC-03:00)

Injun/Solrad 3 - Pass Details

Date: 19 April 2026
Orbit: 868 x 988 km, 66.8° (Epoch: 12 May)

Event Time Altitude Azimuth Distance (km) Brightness Sun altitude
Rises 08:44:20 0° 305° (NW) 3,680 10.8 47.0°
Reaches altitude 10° 08:47:54 10° 285° (WNW) 2,728 10.1 47.8°
Maximum altitude 08:51:49 17° 247° (WSW) 2,256 9.7 48.7°
Drops below altitude 10° 08:55:43 10° 209° (SSW) 2,702 10.1 49.5°
Sets 08:59:17 0° 189° (S) 3,630 10.8 50.3°
